Location: Campo Alegre
(10.1673°N, 67.4431°W)
Time: 12:06:03
(UTC+00:00)

CRYOSAT 2 - Pass Details

Date: 14 April 2024
Orbit: 717 x 722 km, 92.0° (Epoch: 30 May)

Event Time Altitude Azimuth Distance (km) Brightness Sun altitude
Rises 08:33:42 0° 6° (N) 3,113 7.9 -26.2°
Reaches altitude 10° 08:35:59 10° 6° (N) 2,194 7.1 -25.7°
Maximum altitude 08:40:50 89° 98° (E) 720 4.2 -24.5°
Enters shadow 08:42:22 45° 185° (S) 972 4.8 -24.2°
